Tracking 19817 objects as of 18-Aug-2019
HD Live streaming from Space Station
objects crossing your sky now

COSMOS 2251 DEB

Track COSMOS 2251 DEB now!
10-day predictions


NORAD ID: 37282
Int'l Code: 1993-036BHW
Perigee: 648.8 km
Apogee: 756.3 km
Inclination: 73.9 °
Period: 98.7 minutes
Semi major axis: 7073 km
RCS: 0.0097 m2 (small)
Launch date: June 16, 1993
Source: Commonwealth of Independent States (former USSR) (CIS)
Launch site: PLESETSK MISSILE AND SPACE COMPLEX (PKMTR)

Note: This is SATELLITE DEBRIS
aabbcc
Your satellite tracking list
Your tracking list is empty




NASA's NSSDC Master Catalog

Two Line Element Set (TLE):
1 37282U 93036BHW 19223.97991053 +.00000958 +00000-0 +20153-3 0  9999
2 37282 073.8957 333.9017 0075978 224.2996 135.2073 14.59301440534238
Source of the keplerian elements: AFSPC